Simultaneous Nadir Overpasses (SNOs) Predictions

Prediction of SNOs between GOES-16 and NOAA-19 Satellite Orbit:

Table of predicted SNOs for the next 14.0 days since TLE Epoch: 9/16/2023
Index Date Time (GOES-16) GOES-16 Lat,Lon NOAA-19 Lat,Lon Distance(km) Time Diff (sec)
1 09/16/2023 13:47:43 -0.05, -75.22 0.02, -75.59 41.68 80
2 09/17/2023 13:38:17 -0.04, -75.22 -0.63, -72.64 294.67 80
3 09/20/2023 01:55:39 0.04, -75.22 -0.44, -77.40 248.43 80
4 09/21/2023 01:46:14 0.04, -75.23 0.23, -74.46 88.17 80
5 09/22/2023 01:34:08 0.04, -75.23 0.90, -71.51 424.73 80
6 09/23/2023 14:03:30 -0.04, -75.26 0.86, -79.20 449.89 80
7 09/24/2023 13:51:25 -0.04, -75.26 0.20, -76.25 113.30 80
8 09/25/2023 13:42:00 -0.04, -75.27 -0.46, -73.31 223.50 80
9 09/28/2023 02:01:59 0.04, -75.29 -0.58, -78.07 316.80 80
10 09/29/2023 01:47:13 0.04, -75.30 0.05, -75.11 21.12 80
